Stündliche Wetter La Victoria

Heute, 8 Mai, Samstag

Zeit Temperatur Niederschläge Wind Luftdruck Luftfeuchtigkeit
00:00 +21°C° 0.2 mm 1 m/S 690 mmHg 94%
01:00 +21°C° 0.2 mm 1 m/S 690 mmHg 95%
02:00 +21°C° 0 mm 1 m/S 689 mmHg 95%
03:00 +21°C° 0.1 mm 1 m/S 689 mmHg 94%
04:00 +21°C° 0.1 mm 1 m/S 689 mmHg 93%
05:00 +21°C° 0.1 mm 1 m/S 689 mmHg 93%
06:00 +22°C° 0 mm 1 m/S 690 mmHg 89%
07:00 +23°C° 0 mm 1 m/S 690 mmHg 85%
08:00 +23°C° 0 mm 1 m/S 691 mmHg 82%
09:00 +25°C° 0.6 mm 1 m/S 691 mmHg 78%
10:00 +26°C° 0.6 mm 1 m/S 691 mmHg 74%
11:00 +27°C° 0.6 mm 2 m/S 691 mmHg 70%
12:00 +27°C° 1 mm 2 m/S 691 mmHg 70%
13:00 +27°C° 1 mm 1 m/S 690 mmHg 71%
14:00 +27°C° 1 mm 1 m/S 689 mmHg 71%
15:00 +26°C° 1.3 mm 1 m/S 689 mmHg 74%
16:00 +26°C° 1.3 mm 1 m/S 689 mmHg 77%
17:00 +25°C° 1.3 mm 1 m/S 689 mmHg 80%
18:00 +25°C° 1.2 mm 1 m/S 689 mmHg 84%
19:00 +24°C° 1.2 mm 1 m/S 689 mmHg 88%
20:00 +23°C° 1.2 mm 1 m/S 690 mmHg 91%
21:00 +23°C° 1 mm 1 m/S 690 mmHg 92%
22:00 +23°C° 1 mm 1 m/S 690 mmHg 93%
23:00 +22°C° 1 mm 1 m/S 691 mmHg 93%

Morgen, 9 Mai, Sonntag

Zeit Temperatur Niederschläge Wind Luftdruck Luftfeuchtigkeit
00:00 +22°C° 0.8 mm 1 m/S 690 mmHg 93%
01:00 +22°C° 0.8 mm 1 m/S 690 mmHg 94%
02:00 +22°C° 0.8 mm 1 m/S 689 mmHg 94%
03:00 +21°C° 0.4 mm 1 m/S 689 mmHg 94%
04:00 +21°C° 0.4 mm 1 m/S 689 mmHg 95%
05:00 +21°C° 0.4 mm 1 m/S 689 mmHg 95%
06:00 +22°C° 0.2 mm 1 m/S 690 mmHg 92%
07:00 +23°C° 0.2 mm 1 m/S 690 mmHg 88%
08:00 +23°C° 0.2 mm 1 m/S 691 mmHg 85%
09:00 +24°C° 0.5 mm 1 m/S 691 mmHg 81%
10:00 +25°C° 0.5 mm 2 m/S 691 mmHg 78%
11:00 +26°C° 0.5 mm 2 m/S 692 mmHg 74%
12:00 +26°C° 1.3 mm 2 m/S 691 mmHg 76%
13:00 +25°C° 1.3 mm 2 m/S 690 mmHg 78%
14:00 +25°C° 1.3 mm 2 m/S 690 mmHg 81%
15:00 +25°C° 1.1 mm 2 m/S 690 mmHg 83%
16:00 +24°C° 1.1 mm 1 m/S 689 mmHg 85%
17:00 +24°C° 1.1 mm 1 m/S 689 mmHg 87%
18:00 +23°C° 1 mm 1 m/S 689 mmHg 89%
19:00 +23°C° 1 mm 1 m/S 690 mmHg 91%
20:00 +22°C° 1 mm 1 m/S 690 mmHg 93%
21:00 +22°C° 2 mm 1 m/S 690 mmHg 93%
22:00 +22°C° 2 mm 1 m/S 691 mmHg 94%
23:00 +22°C° 2 mm 1 m/S 691 mmHg 94%

übermorgen, 10 Mai, Montag

Zeit Temperatur Niederschläge Wind Luftdruck Luftfeuchtigkeit
00:00 +22°C° 1.7 mm 1 m/S 690 mmHg 94%
01:00 +21°C° 1.7 mm 1 m/S 690 mmHg 94%
02:00 +21°C° 1.7 mm 1 m/S 689 mmHg 94%
03:00 +21°C° 2.3 mm 1 m/S 690 mmHg 94%
04:00 +21°C° 2.3 mm 1 m/S 690 mmHg 94%
05:00 +21°C° 2.3 mm 1 m/S 690 mmHg 95%
06:00 +21°C° 0.3 mm 1 m/S 690 mmHg 94%
07:00 +21°C° 0.3 mm 1 m/S 690 mmHg 93%
08:00 +21°C° 0.3 mm 1 m/S 691 mmHg 93%
09:00 +23°C° 0 mm 1 m/S 691 mmHg 84%
10:00 +25°C° 0 mm 1 m/S 691 mmHg 75%
11:00 +26°C° 0 mm 2 m/S 691 mmHg 66%
12:00 +27°C° 0.2 mm 2 m/S 691 mmHg 66%
13:00 +27°C° 0.2 mm 2 m/S 690 mmHg 66%
14:00 +27°C° 0.2 mm 2 m/S 690 mmHg 66%
15:00 +27°C° 0.3 mm 2 m/S 689 mmHg 67%
16:00 +27°C° 0.3 mm 2 m/S 689 mmHg 68%
17:00 +27°C° 0.3 mm 2 m/S 689 mmHg 69%
18:00 +25°C° 0.2 mm 1 m/S 689 mmHg 75%
19:00 +24°C° 0.2 mm 1 m/S 689 mmHg 80%
20:00 +23°C° 0.2 mm 1 m/S 689 mmHg 86%
21:00 +22°C° 0 mm 1 m/S 690 mmHg 87%
22:00 +22°C° 0 mm 1 m/S 690 mmHg 88%
23:00 +22°C° 0 mm 1 m/S 690 mmHg 89%

11 Mai, Dienstag

Zeit Temperatur Niederschläge Wind Luftdruck Luftfeuchtigkeit
00:00 +22°C° 0 mm 1 m/S 690 mmHg 89%
01:00 +22°C° 0 mm 1 m/S 690 mmHg 88%
02:00 +22°C° 0 mm 1 m/S 689 mmHg 88%
03:00 +21°C° 0 mm 1 m/S 689 mmHg 89%
04:00 +21°C° 0 mm 1 m/S 689 mmHg 91%
05:00 +21°C° 0 mm 1 m/S 689 mmHg 92%
06:00 +22°C° 0 mm 1 m/S 690 mmHg 87%
07:00 +23°C° 0 mm 1 m/S 690 mmHg 83%
08:00 +24°C° 0 mm 1 m/S 691 mmHg 79%
09:00 +25°C° 0 mm 1 m/S 691 mmHg 73%
10:00 +26°C° 0 mm 2 m/S 691 mmHg 67%
11:00 +28°C° 0 mm 2 m/S 691 mmHg 61%
12:00 +28°C° 0.1 mm 2 m/S 691 mmHg 61%
13:00 +28°C° 0.1 mm 3 m/S 690 mmHg 60%
14:00 +28°C° 0.1 mm 3 m/S 690 mmHg 59%
15:00 +28°C° 0.2 mm 3 m/S 689 mmHg 62%
16:00 +27°C° 0.2 mm 2 m/S 689 mmHg 64%
17:00 +27°C° 0.2 mm 2 m/S 689 mmHg 67%
18:00 +26°C° 0.2 mm 2 m/S 689 mmHg 73%
19:00 +24°C° 0.2 mm 1 m/S 689 mmHg 79%
20:00 +23°C° 0.2 mm 1 m/S 690 mmHg 86%
21:00 +23°C° 0.1 mm 1 m/S 690 mmHg 86%
22:00 +23°C° 0.1 mm 1 m/S 690 mmHg 86%
23:00 +22°C° 0.1 mm 1 m/S 691 mmHg 87%

12 Mai, Mittwoch

Zeit Temperatur Niederschläge Wind Luftdruck Luftfeuchtigkeit
00:00 +22°C° 0.2 mm 1 m/S 690 mmHg 88%
01:00 +22°C° 0.2 mm 1 m/S 690 mmHg 88%
02:00 +22°C° 0.2 mm 1 m/S 690 mmHg 89%
03:00 +21°C° 0.1 mm 1 m/S 690 mmHg 89%
04:00 +21°C° 0.1 mm 1 m/S 690 mmHg 90%
05:00 +21°C° 0.1 mm 1 m/S 690 mmHg 91%
06:00 +22°C° 0 mm 1 m/S 690 mmHg 87%
07:00 +23°C° 0 mm 1 m/S 690 mmHg 84%
08:00 +24°C° 0 mm 1 m/S 691 mmHg 81%
09:00 +25°C° 0.1 mm 1 m/S 691 mmHg 75%
10:00 +26°C° 0.1 mm 2 m/S 691 mmHg 69%
11:00 +28°C° 0.1 mm 2 m/S 691 mmHg 64%
12:00 +28°C° 0.3 mm 2 m/S 691 mmHg 64%
13:00 +28°C° 0.3 mm 2 m/S 690 mmHg 64%
14:00 +28°C° 0.3 mm 2 m/S 690 mmHg 65%
15:00 +27°C° 0.6 mm 2 m/S 689 mmHg 67%
16:00 +27°C° 0.6 mm 2 m/S 689 mmHg 70%
17:00 +26°C° 0.6 mm 2 m/S 689 mmHg 73%
18:00 +25°C° 0.4 mm 1 m/S 689 mmHg 78%
19:00 +24°C° 0.4 mm 1 m/S 689 mmHg 84%
20:00 +23°C° 0.4 mm 1 m/S 689 mmHg 90%
21:00 +23°C° 0 mm 1 m/S 690 mmHg 90%
22:00 +22°C° 0 mm 1 m/S 690 mmHg 90%
23:00 +22°C° 0 mm 1 m/S 690 mmHg 91%

13 Mai, Donnerstag

Zeit Temperatur Niederschläge Wind Luftdruck Luftfeuchtigkeit
00:00 +22°C° 0 mm 1 m/S 690 mmHg 91%
01:00 +22°C° 0 mm 1 m/S 690 mmHg 91%
02:00 +22°C° 0 mm 1 m/S 690 mmHg 92%
03:00 +21°C° 0 mm 1 m/S 690 mmHg 92%
04:00 +21°C° 0 mm 1 m/S 690 mmHg 92%
05:00 +21°C° 0 mm 1 m/S 690 mmHg 92%
06:00 +22°C° 0 mm 1 m/S 690 mmHg 89%
07:00 +23°C° 0 mm 1 m/S 691 mmHg 86%
08:00 +24°C° 0 mm 1 m/S 691 mmHg 83%
09:00 +25°C° 0 mm 1 m/S 691 mmHg 77%
10:00 +26°C° 0 mm 1 m/S 691 mmHg 70%
11:00 +28°C° 0 mm 2 m/S 692 mmHg 64%
12:00 +28°C° 0 mm 2 m/S 691 mmHg 60%
13:00 +29°C° 0 mm 2 m/S 691 mmHg 57%
14:00 +29°C° 0 mm 3 m/S 690 mmHg 54%
15:00 +29°C° 0 mm 2 m/S 690 mmHg 55%
16:00 +29°C° 0 mm 2 m/S 689 mmHg 55%
17:00 +28°C° 0 mm 2 m/S 689 mmHg 56%
18:00 +27°C° 0 mm 1 m/S 689 mmHg 62%
19:00 +25°C° 0 mm 1 m/S 689 mmHg 68%
20:00 +24°C° 0 mm 1 m/S 689 mmHg 75%
21:00 +23°C° 0 mm 1 m/S 690 mmHg 76%
22:00 +23°C° 0 mm 1 m/S 690 mmHg 78%
23:00 +22°C° 0 mm 1 m/S 690 mmHg 80%
Mehr zeigen

Wir brauchen deine Erlaubnis

Meteoprog und unser Service Anbieter werden persönliche Daten aufbewahren, so wie Cookies, Geräte Bezeichnung oder ähnliche Technologien von deinem Gerät und Prozess, so wie Persönliche Daten Inhalte und Werbungen, genauso wie social Media und den Verkehr zu analysieren.

  • Aufbewahrung und/oder Zugang zu deiner Geräte Informationen.

    Cookies, Geräte Bezeichnung oder andere Informationen, können aufbewahrt oder Zugang zu deinem Gerät erhalten, für den Grund, der oben angegeben wird.

  • Personalisierte Werbung und Inhalte, Messungen, Einblick in das Publikum und Produkt Entwicklung.

    Werbungen und Inhalte können personalisiert werden, basierend auf ein Profil. Mehr Daten können besser personalisierte Werbungen und Inhalte hinzufügen. Werbung und Inhalte können gezeigt und gemessen werden. Einblicke über das Publikum, welche die Werbung gesehen haben und den Inhalt, können abgeleitet werden. So wie Daten können genutzt werden, um es zu verbessern oder die Benutzer Erfahrung zu verbessern das System und die Software.

Wenn du “Ich stimme zu” klickst, erlaubst du uns, die Cookies zu benutzen die Geräte Bezeichnung, den Web oder ähnliche Technologien zu benutzen. Deine Settings, können in deinem Gerät bei deinem Browser geändert werden.

Für den bestimmten Zweck, berechtigten Interessen beruhen darauf, mehr als auf den Inhalt. Du kannst mehr darüber in unseren Privaten und Cookie Politik lesen.